Total_Precipitation_Accumulation
0.29 0.30 0.31 0.32 0.31 0.29 0.26 0.23 0.21 0.20 0.20 0.20 0.21 0.21 0.22 0.22 0.22 0.22 0.21 0.20 0.19 0.19 0.19 0.19 0.19 0.20 0.20 0.21 0.21 0.22 0.22 0.22 0.22 0.22 0.24 0.27 0.28 0.28 0.27 0.28 0.31 0.31 0.29 0.31 0.35 0.45 0.52 0.53 0.48 0.44 0.41 0.52 0.61 0.62 0.57 0.50 0.45 0.53 0.53 0.60 0.69 0.64 0.64 0.77 0.79 0.58 0.27 0.12 0.12 0.14 0.13 0.15 0.26 0.31 0.41 0.43 0.39 0.31 0.29 0.28 0.33 0.36 0.35 0.36 0.37
0.23 0.22 0.23 0.24 0.27 0.29 0.29 0.28 0.26 0.23 0.22 0.20 0.19 0.18 0.17 0.17 0.17 0.18 0.20 0.20 0.22 0.25 0.25 0.35 0.24 0.24 0.24 0.23 0.22 0.21 0.21 0.21 0.21 0.21 0.22 0.22 0.23 0.25 0.28 0.30 0.32 0.31 0.28 0.30 0.28 0.29 0.35 0.45 0.43 0.41 0.40 0.48 0.53 0.55 0.55 0.59 0.60 0.58 0.52 0.51 0.60 0.61 0.53 0.66 0.77 0.63 0.48 0.20 0.12 0.09 0.10 0.11 0.23 0.24 0.33 0.37 0.43 0.37 0.34 0.33 0.27 0.29 0.32 0.33 0.36
0.23 0.21 0.21 0.22 0.23 0.24 0.26 0.28 0.28 0.28 0.28 0.27 0.25 0.24 0.22 0.20 0.18 0.20 0.19 0.20 0.20 0.22 0.25 0.28 0.28 0.30 0.31 0.32 0.30 0.29 0.27 0.26 0.25 0.25 0.26 0.26 0.26 0.26 0.24 0.26 0.29 0.31 0.30 0.29 0.26 0.30 0.30 0.34 0.36 0.35 0.37 0.45 0.49 0.50 0.49 0.52 0.56 0.65 0.62 0.52 0.49 0.45 0.43 0.48 0.64 0.68 0.51 0.34 0.17 0.11 0.09 0.10 0.14 0.24 0.25 0.30 0.34 0.36 0.41 0.39 0.38 0.34 0.34 0.28 0.30
0.24 0.24 0.26 0.24 0.23 0.24 0.25 0.26 0.27 0.26 0.27 0.30 0.26 0.28 0.25 0.26 0.25 0.28 0.28 0.28 0.29 0.26 0.26 0.25 0.24 0.23 0.23 0.23 0.22 0.22 0.22 0.21 0.21 0.21 0.22 0.22 0.23 0.22 0.22 0.23 0.27 0.30 0.32 0.30 0.30 0.30 0.32 0.35 0.33 0.28 0.33 0.42 0.44 0.43 0.42 0.46 0.52 0.57 0.59 0.53 0.48 0.46 0.40 0.43 0.54 0.68 0.59 0.48 0.27 0.17 0.12 0.11 0.11 0.11 0.15 0.22 0.32 0.44 0.49 0.47 0.41 0.41 0.34 0.30 0.31
0.31 0.31 0.29 0.30 0.29 0.30 0.29 0.27 0.26 0.26 0.29 0.27 0.28 0.29 0.28 0.28 0.29 0.30 0.29 0.28 0.27 0.26 0.26 0.26 0.26 0.26 0.27 0.25 0.24 0.24 0.23 0.23 0.24 0.23 0.22 0.22 0.22 0.23 0.24 0.24 0.24 0.25 0.26 0.28 0.29 0.31 0.34 0.34 0.34 0.35 0.35 0.38 0.42 0.46 0.43 0.48 0.53 0.53 0.55 0.54 0.52 0.46 0.42 0.41 0.49 0.50 0.61 0.60 0.44 0.23 0.14 0.11 0.10 0.11 0.12 0.19 0.27 0.37 0.49 0.53 0.55 0.50 0.42 0.34 0.30
0.31 0.33 0.33 0.33 0.35 0.33 0.34 0.33 0.32 0.30 0.28 0.28 0.27 0.25 0.24 0.25 0.25 0.25 0.25 0.28 0.28 0.29 0.29 0.28 0.28 0.27 0.27 0.25 0.24 0.23 0.22 0.22 0.23 0.23 0.22 0.21 0.22 0.22 0.23 0.25 0.26 0.26 0.26 0.25 0.25 0.27 0.32 0.34 0.33 0.32 0.37 0.42 0.41 0.37 0.40 0.46 0.56 0.62 0.63 0.60 0.57 0.54 0.55 0.54 0.46 0.48 0.55 0.52 0.41 0.35 0.21 0.18 0.15 0.14 0.14 0.16 0.23 0.31 0.41 0.48 0.51 0.53 0.55 0.51 0.41
0.25 0.27 0.29 0.32 0.33 0.34 0.34 0.34 0.34 0.33 0.33 0.33 0.32 0.32 0.30 0.30 0.28 0.28 0.27 0.28 0.28 0.28 0.26 0.26 0.25 0.25 0.24 0.24 0.24 0.23 0.23 0.23 0.24 0.24 0.23 0.23 0.24 0.26 0.26 0.26 0.27 0.28 0.28 0.28 0.28 0.26 0.27 0.29 0.30 0.31 0.35 0.37 0.41 0.40 0.41 0.45 0.51 0.54 0.62 0.60 0.62 0.66 0.76 0.75 0.70 0.63 0.60 0.54 0.44 0.37 0.28 0.19 0.16 0.19 0.13 0.12 0.17 0.25 0.35 0.41 0.49 0.50 0.49 0.52 0.52
0.23 0.24 0.25 0.26 0.26 0.27 0.27 0.28 0.29 0.31 0.32 0.32 0.33 0.34 0.34 0.35 0.36 0.35 0.34 0.33 0.32 0.31 0.31 0.30 0.28 0.28 0.28 0.28 0.26 0.25 0.26 0.27 0.27 0.28 0.27 0.27 0.29 0.30 0.31 0.32 0.31 0.30 0.28 0.26 0.25 0.26 0.28 0.27 0.27 0.28 0.31 0.35 0.36 0.37 0.40 0.46 0.52 0.62 0.54 0.77 0.67 0.81 0.88 0.83 0.82 0.81 0.73 0.63 0.55 0.47 0.33 0.27 0.20 0.15 0.13 0.16 0.22 0.26 0.27 0.37 0.47 0.44 0.44 0.44 0.45
0.20 0.19 0.19 0.20 0.22 0.23 0.24 0.26 0.27 0.28 0.28 0.29 0.31 0.32 0.33 0.34 0.36 0.36 0.36 0.34 0.33 0.33 0.33 0.34 0.34 0.35 0.33 0.32 0.31 0.30 0.32 0.32 0.31 0.40 0.44 0.42 0.43 0.45 0.42 0.42 0.41 0.37 0.33 0.29 0.28 0.30 0.31 0.31 0.31 0.30 0.29 0.29 0.31 0.35 0.38 0.42 0.53 0.60 0.58 0.61 0.68 0.77 0.79 0.84 0.87 0.89 0.86 0.75 0.67 0.45 0.39 0.35 0.26 0.23 0.24 0.22 0.22 0.26 0.24 0.23 0.29 0.30 0.35 0.38 0.42
0.13 0.14 0.15 0.16 0.17 0.20 0.24 0.25 0.27 0.25 0.32 0.30 0.31 0.33 0.34 0.35 0.39 0.37 0.34 0.33 0.34 0.35 0.37 0.39 0.41 0.39 0.38 0.36 0.36 0.39 0.42 0.45 0.42 0.41 0.51 0.60 0.68 0.70 0.68 0.62 0.56 0.51 0.47 0.42 0.37 0.35 0.35 0.36 0.34 0.31 0.31 0.33 0.34 0.39 0.44 0.50 0.55 0.64 0.66 0.69 0.76 0.80 0.85 0.88 0.89 0.86 0.88 0.89 0.79 0.57 0.55 0.44 0.30 0.22 0.20 0.16 0.12 0.10 0.12 0.17 0.24 0.24 0.26 0.36 0.41
0.10 0.11 0.12 0.14 0.16 0.18 0.20 0.21 0.26 0.24 0.27 0.27 0.29 0.31 0.32 0.33 0.34 0.34 0.34 0.35 0.37 0.35 0.35 0.34 0.34 0.33 0.34 0.33 0.33 0.33 0.36 0.35 0.41 0.57 0.74 0.96 1.01 1.00 0.87 0.73 0.61 0.57 0.56 0.57 0.54 0.43 0.38 0.35 0.35 0.36 0.38 0.41 0.44 0.46 0.49 0.54 0.59 0.64 0.65 0.65 0.76 0.90 0.99 0.92 0.81 0.72 0.75 0.78 0.65 0.60 0.50 0.42 0.27 0.18 0.16 0.16 0.13 0.15 0.17 0.17 0.19 0.22 0.31 0.44 0.56
0.11 0.12 0.12 0.13 0.14 0.15 0.16 0.18 0.21 0.23 0.24 0.28 0.28 0.29 0.29 0.31 0.32 0.31 0.31 0.32 0.31 0.30 0.30 0.29 0.28 0.37 0.30 0.30 0.30 0.32 0.30 0.34 0.56 0.75 0.95 1.30 1.35 1.23 1.21 1.02 0.86 0.76 0.68 0.65 0.59 0.55 0.50 0.46 0.43 0.38 0.38 0.38 0.40 0.43 0.44 0.49 0.54 0.58 0.67 0.72 0.76 0.81 0.91 0.97 0.99 0.87 0.75 0.74 0.72 0.62 0.54 0.42 0.31 0.22 0.20 0.20 0.22 0.21 0.20 0.22 0.25 0.29 0.35 0.39 0.41
0.11 0.12 0.12 0.13 0.14 0.16 0.17 0.19 0.21 0.23 0.25 0.25 0.27 0.30 0.33 0.35 0.35 0.37 0.35 0.34 0.32 0.32 0.28 0.29 0.29 0.29 0.31 0.33 0.32 0.30 0.46 0.36 0.58 0.84 1.04 1.41 1.62 1.65 1.54 1.42 1.10 0.96 0.82 0.73 0.67 0.60 0.56 0.54 0.50 0.46 0.42 0.41 0.46 0.47 0.49 0.52 0.51 0.56 0.62 0.65 0.77 1.00 1.06 1.14 1.10 0.98 1.02 1.00 0.93 0.78 0.65 0.49 0.46 0.35 0.27 0.31 0.37 0.42 0.35 0.37 0.33 0.32 0.32 0.35 0.32
0.12 0.13 0.13 0.15 0.15 0.18 0.21 0.22 0.25 0.26 0.28 0.30 0.33 0.36 0.40 0.40 0.39 0.40 0.38 0.36 0.34 0.31 0.29 0.30 0.31 0.32 0.36 0.40 0.43 0.39 0.40 0.43 0.64 0.88 1.15 1.47 1.62 2.12 1.63 1.47 1.19 0.92 0.77 0.69 0.65 0.62 0.60 0.59 0.58 0.53 0.48 0.50 0.53 0.51 0.50 0.51 0.52 0.56 0.62 0.67 0.70 0.68 0.84 0.95 0.96 0.99 1.06 1.11 1.14 1.03 0.69 0.60 0.53 0.42 0.38 0.45 0.56 0.59 0.58 0.53 0.42 0.37 0.36 0.35 0.28
0.12 0.13 0.14 0.16 0.18 0.20 0.23 0.25 0.28 0.28 0.30 0.32 0.35 0.37 0.40 0.40 0.40 0.41 0.40 0.40 0.40 0.37 0.36 0.37 0.36 0.38 0.38 0.41 0.48 0.47 0.45 0.53 0.79 1.09 1.30 1.62 1.75 1.95 1.59 1.35 1.09 0.89 0.73 0.66 0.63 0.61 0.58 0.55 0.53 0.50 0.49 0.53 0.54 0.55 0.61 0.61 0.63 0.65 0.65 0.59 0.54 0.52 0.50 0.65 0.64 0.77 0.87 0.86 0.83 0.74 0.60 0.56 0.54 0.56 0.71 0.65 0.80 0.80 0.72 0.59 0.52 0.41 0.39 0.36 0.37
0.14 0.15 0.18 0.19 0.21 0.24 0.26 0.29 0.30 0.32 0.35 0.38 0.40 0.40 0.40 0.38 0.40 0.37 0.39 0.39 0.38 0.39 0.38 0.39 0.38 0.37 0.34 0.37 0.43 0.47 0.44 0.52 0.78 1.12 1.48 1.75 1.89 1.64 1.46 1.29 0.98 0.83 0.74 0.76 0.69 0.68 0.65 0.67 0.64 0.61 0.54 0.52 0.51 0.65 0.65 0.71 0.78 0.76 0.70 0.60 0.55 0.52 0.49 0.41 0.52 0.77 0.66 0.85 0.77 0.74 0.73 0.70 0.99 0.87 0.93 0.93 1.01 0.88 0.69 0.63 0.61 0.68 0.72 0.75 0.69
0.17 0.20 0.22 0.24 0.28 0.30 0.33 0.35 0.39 0.40 0.40 0.41 0.39 0.38 0.39 0.39 0.40 0.41 0.44 0.41 0.42 0.41 0.41 0.39 0.37 0.35 0.35 0.37 0.40 0.37 0.38 0.46 0.63 0.95 1.30 1.48 1.65 1.50 1.39 1.20 0.95 0.77 0.68 0.60 0.61 0.61 0.64 0.65 0.68 0.62 0.57 0.53 0.52 0.70 0.90 0.95 0.99 0.87 0.77 0.70 0.62 0.59 0.54 0.44 0.66 1.05 1.40 1.73 1.90 2.00 1.89 1.90 1.89 2.12 2.12 1.98 1.34 1.33 1.44 1.49 1.22 0.83 0.87 0.93 0.75
0.23 0.25 0.28 0.30 0.35 0.37 0.41 0.43 0.45 0.43 0.40 0.41 0.41 0.41 0.42 0.43 0.42 0.40 0.44 0.42 0.40 0.34 0.33 0.32 0.31 0.32 0.33 0.35 0.38 0.39 0.36 0.39 0.53 0.82 1.11 1.33 1.58 1.61 1.49 1.20 0.95 0.81 0.71 0.62 0.59 0.59 0.53 0.55 0.60 0.62 0.63 0.57 0.61 0.74 1.18 1.19 1.22 1.01 0.88 0.82 0.76 0.72 0.60 0.51 0.52 0.54 0.84 1.23 1.62 1.89 2.00 1.87 1.74 1.74 1.93 1.90 2.10 1.71 1.79 1.91 1.15 0.72 0.77 0.71 0.67
0.28 0.34 0.38 0.39 0.43 0.44 0.43 0.43 0.44 0.44 0.44 0.42 0.44 0.47 0.44 0.41 0.37 0.36 0.37 0.36 0.34 0.32 0.33 0.33 0.30 0.29 0.32 0.36 0.37 0.43 0.46 0.46 0.51 0.67 0.94 1.26 1.35 1.34 1.19 1.08 0.96 0.76 0.68 0.66 0.59 0.60 0.56 0.55 0.59 0.63 0.61 0.57 0.80 1.08 1.43 1.43 1.41 1.10 0.87 0.85 0.81 0.69 0.51 0.46 0.52 0.57 0.64 0.63 0.65 0.70 0.85 1.05 1.14 1.07 0.97 1.05 1.16 1.44 1.31 1.52 1.21 1.02 1.02 0.76 0.60
0.35 0.40 0.43 0.47 0.45 0.45 0.45 0.46 0.46 0.46 0.46 0.44 0.43 0.45 0.41 0.39 0.37 0.38 0.36 0.35 0.35 0.33 0.33 0.33 0.35 0.33 0.32 0.36 0.38 0.44 0.50 0.47 0.49 0.56 0.86 1.15 1.48 1.34 1.24 1.17 1.06 0.88 0.81 0.76 0.74 0.63 0.55 0.57 0.58 0.65 0.73 0.87 0.99 1.38 1.64 2.38 1.86 1.41 1.08 1.03 0.96 0.78 0.55 0.51 0.49 0.52 0.56 0.52 0.48 0.48 0.51 0.55 0.61 0.63 0.65 0.65 0.67 0.82 1.02 0.80 0.81 0.98 0.99 0.82 0.66
0.44 0.46 0.47 0.46 0.45 0.45 0.46 0.48 0.49 0.47 0.45 0.47 0.45 0.40 0.36 0.38 0.37 0.36 0.36 0.35 0.37 0.37 0.34 0.33 0.35 0.33 0.34 0.35 0.38 0.43 0.50 0.58 0.57 0.62 0.73 0.91 1.22 1.45 1.20 1.05 0.91 0.89 0.91 0.90 0.78 0.69 0.57 0.52 0.50 0.48 0.52 0.64 0.92 1.31 1.71 2.09 1.82 1.55 1.63 1.37 0.98 0.75 0.77 0.76 0.71 0.70 0.63 0.59 0.52 0.52 0.51 0.53 0.54 0.55 0.56 0.52 0.56 0.63 0.65 0.72 0.68 0.57 0.59 0.69 0.74
0.47 0.50 0.49 0.48 0.47 0.47 0.47 0.47 0.46 0.47 0.44 0.43 0.42 0.38 0.34 0.36 0.37 0.37 0.39 0.42 0.42 0.38 0.35 0.37 0.39 0.37 0.36 0.40 0.45 0.51 0.47 0.47 0.46 0.41 0.44 0.67 0.96 1.39 1.21 1.02 0.86 1.01 1.07 0.92 0.75 0.63 0.53 0.48 0.46 0.46 0.51 0.63 0.77 1.31 1.98 2.04 1.95 1.62 1.40 1.92 2.04 1.93 1.24 1.03 0.93 0.88 0.80 0.74 0.67 0.65 0.62 0.60 0.62 0.59 0.52 0.48 0.43 0.42 0.51 0.56 0.62 0.60 0.51 0.47 0.49
0.50 0.50 0.48 0.47 0.45 0.46 0.46 0.45 0.45 0.43 0.43 0.42 0.44 0.41 0.35 0.36 0.37 0.41 0.46 0.50 0.48 0.47 0.44 0.45 0.47 0.43 0.39 0.38 0.39 0.42 0.42 0.43 0.42 0.39 0.38 0.52 0.75 1.09 1.22 1.21 1.28 1.13 1.19 1.09 0.83 0.64 0.54 0.50 0.46 0.47 0.60 0.80 1.22 1.71 1.99 2.04 1.55 1.45 2.12 2.08 1.81 1.62 1.55 1.39 1.40 1.36 1.25 1.07 0.88 0.79 0.69 0.59 0.56 0.54 0.49 0.46 0.44 0.40 0.44 0.47 0.48 0.52 0.60 0.60 0.47
0.49 0.49 0.46 0.43 0.41 0.40 0.41 0.41 0.41 0.42 0.45 0.45 0.43 0.41 0.40 0.40 0.42 0.43 0.45 0.51 0.52 0.49 0.41 0.43 0.44 0.42 0.40 0.39 0.41 0.43 0.42 0.41 0.40 0.39 0.40 0.42 0.58 1.00 1.26 1.26 1.38 1.17 1.02 0.86 0.69 0.60 0.57 0.50 0.49 0.58 0.94 1.31 1.82 2.07 1.97 1.75 1.46 1.57 1.82 1.58 1.58 1.61 1.45 1.33 1.25 1.24 1.19 1.10 1.01 0.89 0.77 0.64 0.55 0.53 0.47 0.40 0.39 0.38 0.38 0.41 0.44 0.46 0.67 0.56 0.46
0.47 0.45 0.41 0.38 0.38 0.38 0.40 0.41 0.41 0.42 0.43 0.45 0.47 0.46 0.42 0.41 0.45 0.42 0.48 0.53 0.53 0.50 0.42 0.44 0.47 0.44 0.44 0.48 0.50 0.47 0.44 0.42 0.41 0.40 0.41 0.40 0.49 0.76 0.94 0.99 0.90 0.80 0.80 0.66 0.61 0.60 0.61 0.80 0.98 1.29 1.33 1.46 1.52 1.50 1.42 1.28 1.36 1.19 1.22 1.16 1.13 1.03 1.19 1.22 1.05 0.87 0.89 0.92 0.82 0.69 0.62 0.59 0.51 0.45 0.44 0.44 0.47 0.46 0.50 0.53 0.56 0.55 0.55 0.59 0.51
0.44 0.41 0.37 0.36 0.37 0.39 0.41 0.39 0.39 0.40 0.40 0.39 0.40 0.41 0.43 0.44 0.48 0.46 0.50 0.53 0.49 0.52 0.52 0.50 0.50 0.49 0.53 0.54 0.57 0.53 0.48 0.46 0.42 0.40 0.42 0.42 0.44 0.58 0.77 0.62 0.58 0.57 0.60 0.55 0.48 0.49 0.75 1.02 1.02 0.83 0.83 0.83 0.87 0.84 0.93 0.62 0.61 0.72 0.82 0.89 0.96 0.93 0.90 0.92 0.92 0.80 0.71 0.58 0.53 0.53 0.53 0.52 0.55 0.50 0.47 0.45 0.46 0.46 0.43 0.44 0.45 0.54 0.47 0.45 0.46
0.40 0.37 0.35 0.36 0.38 0.40 0.42 0.43 0.43 0.41 0.40 0.39 0.40 0.40 0.42 0.45 0.47 0.49 0.52 0.54 0.52 0.54 0.55 0.56 0.58 0.60 0.63 0.55 0.52 0.49 0.46 0.43 0.41 0.39 0.40 0.47 0.49 0.49 0.59 0.58 0.55 0.53 0.51 0.53 0.53 0.53 0.53 0.60 0.62 0.64 0.67 0.70 0.74 0.77 0.62 0.50 0.55 0.68 0.67 0.72 0.78 0.87 0.81 0.71 0.66 0.67 0.63 0.53 0.48 0.46 0.45 0.48 0.55 0.62 0.64 0.55 0.52 0.47 0.39 0.37 0.38 0.40 0.41 0.42 0.42
0.40 0.37 0.35 0.37 0.40 0.41 0.43 0.42 0.43 0.41 0.39 0.40 0.42 0.39 0.39 0.39 0.45 0.48 0.55 0.65 0.74 0.71 0.69 0.69 0.74 0.81 0.84 0.66 0.56 0.46 0.46 0.48 0.44 0.48 0.52 0.56 0.60 0.66 0.69 0.63 0.57 0.49 0.50 0.51 0.52 0.49 0.51 0.56 0.66 0.76 0.85 0.89 0.81 0.75 0.70 0.73 0.66 0.55 0.48 0.51 0.62 0.66 0.73 0.79 0.81 0.59 0.57 0.49 0.48 0.49 0.52 0.54 0.63 0.62 0.65 0.63 0.51 0.43 0.40 0.42 0.35 0.38 0.36 0.38 0.50
0.40 0.38 0.37 0.39 0.39 0.39 0.40 0.40 0.39 0.39 0.39 0.38 0.41 0.45 0.45 0.47 0.50 0.47 0.41 0.53 0.74 1.07 1.29 1.17 1.07 1.10 0.95 0.87 0.79 0.65 0.56 0.55 0.54 0.54 0.59 0.70 0.85 0.94 0.90 0.77 0.66 0.61 0.56 0.56 0.55 0.56 0.58 0.61 0.60 0.55 0.51 0.51 0.60 0.65 0.60 0.55 0.51 0.48 0.46 0.48 0.52 0.66 0.77 0.80 0.84 0.80 0.69 0.61 0.58 0.59 0.59 0.58 0.56 0.53 0.51 0.59 0.56 0.54 0.42 0.41 0.36 0.34 0.37 0.34 0.37
0.42 0.38 0.36 0.37 0.36 0.39 0.41 0.39 0.37 0.37 0.38 0.37 0.35 0.36 0.40 0.47 0.52 0.61 0.56 0.46 0.55 0.74 1.19 1.35 1.35 1.31 1.28 1.00 0.86 0.95 0.93 0.74 0.74 0.92 1.02 1.21 1.12 1.08 1.03 1.03 0.89 0.78 0.68 0.57 0.63 0.62 0.60 0.60 0.56 0.54 0.53 0.51 0.53 0.57 0.58 0.57 0.57 0.56 0.53 0.52 0.50 0.53 0.61 0.75 0.71 0.64 0.61 0.63 0.62 0.61 0.56 0.55 0.56 0.55 0.52 0.50 0.44 0.44 0.48 0.47 0.46 0.39 0.43 0.47 0.45
0.51 0.44 0.41 0.39 0.38 0.41 0.39 0.36 0.33 0.35 0.35 0.33 0.32 0.34 0.33 0.33 0.42 0.49 0.50 0.51 0.51 0.69 0.90 1.16 1.28 1.27 1.49 1.40 0.93 0.76 0.73 0.65 0.77 0.82 1.00 1.25 1.45 1.05 1.10 1.07 0.95 0.97 0.90 0.88 0.88 0.77 0.69 0.62 0.58 0.55 0.53 0.53 0.53 0.56 0.56 0.52 0.52 0.55 0.56 0.54 0.53 0.53 0.52 0.55 0.69 0.71 0.74 0.77 0.74 0.67 0.63 0.59 0.56 0.54 0.54 0.46 0.45 0.43 0.44 0.47 0.48 0.53 0.51 0.44 0.43
0.56 0.46 0.42 0.40 0.38 0.36 0.35 0.35 0.34 0.34 0.32 0.31 0.32 0.33 0.31 0.28 0.26 0.32 0.45 0.49 0.51 0.62 0.72 0.86 1.06 1.23 1.21 1.21 1.13 0.94 0.78 0.76 0.71 0.90 1.05 1.38 1.00 0.87 0.94 0.94 1.07 1.08 0.89 0.75 0.73 0.72 0.64 0.62 0.60 0.58 0.57 0.56 0.55 0.55 0.54 0.50 0.50 0.51 0.56 0.62 0.61 0.57 0.55 0.54 0.55 0.60 0.62 0.67 0.74 0.77 0.75 0.73 0.65 0.57 0.55 0.51 0.49 0.49 0.48 0.53 0.57 0.53 0.55 0.53 0.47
0.52 0.47 0.43 0.40 0.38 0.34 0.34 0.34 0.34 0.34 0.34 0.34 0.32 0.31 0.32 0.31 0.32 0.26 0.27 0.33 0.43 0.50 0.50 0.56 0.68 0.77 0.85 0.98 1.09 1.11 0.94 0.87 0.85 1.11 1.16 0.96 0.74 0.69 0.83 1.02 1.02 0.86 0.87 0.73 0.57 0.54 0.51 0.50 0.55 0.57 0.56 0.56 0.55 0.54 0.54 0.52 0.51 0.51 0.52 0.54 0.56 0.58 0.57 0.53 0.52 0.53 0.58 0.67 0.73 0.69 0.68 0.78 0.74 0.68 0.59 0.56 0.57 0.59 0.55 0.50 0.47 0.49 0.49 0.53 0.51
0.46 0.47 0.44 0.41 0.39 0.35 0.33 0.33 0.34 0.32 0.32 0.34 0.33 0.32 0.30 0.32 0.34 0.33 0.33 0.25 0.27 0.33 0.39 0.40 0.43 0.45 0.46 0.55 0.67 0.68 0.72 0.80 0.76 0.68 0.78 0.80 0.96 0.96 0.86 0.76 0.63 0.55 0.58 0.59 0.54 0.47 0.43 0.43 0.45 0.47 0.47 0.46 0.46 0.46 0.46 0.46 0.46 0.46 0.47 0.48 0.49 0.49 0.51 0.51 0.50 0.52 0.55 0.59 0.65 0.64 0.63 0.65 0.69 0.76 0.79 0.73 0.62 0.55 0.56 0.53 0.49 0.52 0.56 0.56 0.52
0.39 0.37 0.33 0.33 0.35 0.34 0.33 0.33 0.34 0.34 0.32 0.31 0.31 0.31 0.33 0.30 0.32 0.36 0.39 0.38 0.39 0.37 0.33 0.35 0.32 0.30 0.37 0.41 0.50 0.50 0.51 0.53 0.59 0.65 0.71 0.79 0.83 0.75 0.68 0.59 0.52 0.38 0.35 0.34 0.35 0.35 0.34 0.35 0.36 0.37 0.37 0.37 0.36 0.37 0.38 0.38 0.39 0.39 0.39 0.39 0.38 0.39 0.42 0.45 0.46 0.46 0.46 0.49 0.51 0.52 0.53 0.57 0.59 0.64 0.70 0.76 0.75 0.76 0.68 0.62 0.57 0.59 0.55 0.51 0.48
0.36 0.35 0.30 0.28 0.29 0.31 0.31 0.31 0.32 0.33 0.33 0.31 0.31 0.33 0.32 0.30 0.33 0.33 0.34 0.34 0.40 0.38 0.34 0.32 0.32 0.30 0.29 0.32 0.38 0.41 0.43 0.44 0.54 0.65 0.76 0.81 0.77 0.70 0.61 0.48 0.35 0.28 0.28 0.28 0.27 0.28 0.29 0.30 0.30 0.30 0.30 0.31 0.33 0.34 0.36 0.36 0.37 0.38 0.37 0.36 0.33 0.32 0.34 0.36 0.38 0.39 0.41 0.43 0.46 0.47 0.48 0.53 0.56 0.59 0.63 0.66 0.68 0.68 0.65 0.59 0.56 0.53 0.51 0.50 0.49
0.37 0.33 0.29 0.27 0.28 0.30 0.30 0.29 0.29 0.30 0.31 0.30 0.30 0.29 0.28 0.27 0.29 0.30 0.30 0.30 0.34 0.34 0.34 0.30 0.26 0.23 0.24 0.23 0.31 0.32 0.34 0.39 0.48 0.53 0.61 0.63 0.53 0.41 0.34 0.30 0.29 0.27 0.25 0.26 0.26 0.26 0.25 0.25 0.27 0.26 0.26 0.27 0.29 0.30 0.31 0.32 0.32 0.31 0.30 0.30 0.30 0.31 0.33 0.35 0.36 0.36 0.37 0.38 0.40 0.42 0.43 0.47 0.50 0.51 0.55 0.59 0.61 0.63 0.64 0.65 0.64 0.59 0.58 0.53 0.51
0.33 0.32 0.31 0.30 0.31 0.30 0.29 0.28 0.27 0.26 0.26 0.26 0.26 0.27 0.28 0.27 0.28 0.28 0.29 0.29 0.30 0.32 0.32 0.29 0.28 0.25 0.27 0.26 0.28 0.33 0.32 0.31 0.31 0.34 0.38 0.39 0.36 0.32 0.28 0.28 0.29 0.27 0.25 0.24 0.25 0.25 0.24 0.23 0.23 0.24 0.24 0.24 0.23 0.22 0.23 0.23 0.24 0.23 0.22 0.22 0.23 0.25 0.30 0.30 0.34 0.34 0.34 0.34 0.35 0.38 0.40 0.42 0.46 0.49 0.50 0.50 0.50 0.53 0.56 0.56 0.60 0.65 0.65 0.63 0.62
0.30 0.28 0.27 0.28 0.30 0.30 0.30 0.29 0.26 0.26 0.25 0.25 0.25 0.27 0.28 0.28 0.27 0.27 0.27 0.27 0.25 0.27 0.29 0.29 0.29 0.28 0.29 0.32 0.34 0.33 0.31 0.31 0.33 0.34 0.36 0.35 0.30 0.27 0.27 0.27 0.27 0.24 0.25 0.25 0.25 0.25 0.24 0.23 0.22 0.22 0.22 0.22 0.22 0.22 0.23 0.21 0.21 0.20 0.19 0.19 0.19 0.19 0.21 0.22 0.24 0.27 0.31 0.32 0.32 0.34 0.36 0.38 0.40 0.44 0.46 0.45 0.43 0.44 0.47 0.50 0.51 0.53 0.57 0.58 0.59
0.33 0.29 0.27 0.26 0.28 0.28 0.28 0.28 0.27 0.28 0.27 0.27 0.25 0.26 0.29 0.28 0.28 0.29 0.30 0.28 0.25 0.25 0.28 0.30 0.30 0.30 0.32 0.35 0.39 0.40 0.34 0.31 0.29 0.28 0.28 0.28 0.28 0.29 0.27 0.25 0.24 0.25 0.27 0.27 0.26 0.26 0.25 0.24 0.23 0.22 0.21 0.21 0.21 0.21 0.22 0.22 0.20 0.19 0.19 0.18 0.18 0.18 0.19 0.20 0.20 0.22 0.24 0.26 0.28 0.29 0.31 0.32 0.33 0.36 0.40 0.42 0.42 0.41 0.43 0.43 0.43 0.47 0.47 0.46 0.44
0.35 0.32 0.29 0.27 0.27 0.29 0.27 0.26 0.27 0.28 0.28 0.28 0.28 0.29 0.29 0.29 0.29 0.30 0.30 0.26 0.25 0.25 0.27 0.30 0.31 0.31 0.34 0.39 0.38 0.44 0.41 0.39 0.33 0.31 0.31 0.28 0.26 0.25 0.24 0.24 0.26 0.25 0.25 0.26 0.26 0.26 0.26 0.24 0.22 0.21 0.20 0.20 0.20 0.21 0.21 0.20 0.19 0.19 0.19 0.18 0.18 0.18 0.18 0.18 0.18 0.19 0.20 0.22 0.24 0.25 0.27 0.28 0.29 0.32 0.33 0.35 0.38 0.39 0.38 0.41 0.43 0.44 0.44 0.44 0.42
0.35 0.34 0.31 0.28 0.27 0.28 0.29 0.26 0.27 0.27 0.27 0.27 0.26 0.29 0.31 0.30 0.29 0.30 0.28 0.26 0.25 0.25 0.27 0.27 0.28 0.30 0.32 0.34 0.34 0.38 0.33 0.30 0.29 0.28 0.28 0.28 0.26 0.25 0.25 0.24 0.25 0.27 0.27 0.27 0.28 0.27 0.25 0.23 0.22 0.22 0.21 0.20 0.20 0.20 0.21 0.20 0.20 0.20 0.19 0.19 0.18 0.17 0.17 0.17 0.17 0.18 0.19 0.20 0.21 0.22 0.23 0.26 0.28 0.30 0.31 0.35 0.33 0.33 0.35 0.37 0.38 0.40 0.42 0.43 0.43
0.34 0.33 0.33 0.31 0.30 0.30 0.32 0.29 0.28 0.27 0.24 0.25 0.26 0.27 0.29 0.29 0.30 0.29 0.27 0.26 0.25 0.25 0.26 0.24 0.25 0.26 0.27 0.28 0.28 0.28 0.26 0.26 0.27 0.28 0.28 0.27 0.26 0.25 0.24 0.24 0.25 0.26 0.27 0.27 0.27 0.26 0.25 0.24 0.22 0.22 0.22 0.21 0.21 0.22 0.22 0.21 0.20 0.20 0.20 0.20 0.19 0.19 0.18 0.17 0.17 0.18 0.18 0.18 0.18 0.19 0.20 0.22 0.23 0.25 0.26 0.27 0.28 0.30 0.31 0.31 0.32 0.33 0.35 0.38 0.40
0.33 0.31 0.32 0.33 0.31 0.29 0.29 0.30 0.28 0.27 0.27 0.27 0.26 0.26 0.26 0.27 0.27 0.27 0.26 0.24 0.24 0.24 0.26 0.25 0.25 0.26 0.27 0.27 0.25 0.24 0.24 0.25 0.27 0.27 0.27 0.25 0.24 0.24 0.24 0.24 0.24 0.24 0.24 0.23 0.23 0.23 0.23 0.23 0.22 0.21 0.19 0.19 0.19 0.19 0.19 0.19 0.20 0.22 0.21 0.21 0.20 0.20 0.19 0.19 0.19 0.19 0.21 0.21 0.19 0.19 0.19 0.19 0.19 0.20 0.22 0.23 0.25 0.27 0.26 0.27 0.28 0.29 0.29 0.32 0.35
0.31 0.31 0.33 0.33 0.30 0.30 0.28 0.28 0.29 0.28 0.27 0.26 0.25 0.23 0.24 0.24 0.26 0.26 0.25 0.25 0.24 0.24 0.25 0.25 0.25 0.26 0.27 0.27 0.27 0.26 0.26 0.26 0.27 0.27 0.27 0.25 0.25 0.23 0.23 0.24 0.26 0.24 0.23 0.22 0.22 0.22 0.22 0.22 0.22 0.21 0.19 0.17 0.17 0.17 0.17 0.17 0.19 0.21 0.22 0.23 0.22 0.21 0.20 0.21 0.20 0.21 0.22 0.23 0.22 0.20 0.19 0.19 0.18 0.19 0.20 0.20 0.22 0.24 0.24 0.25 0.26 0.27 0.29 0.30 0.35
0.30 0.30 0.31 0.32 0.31 0.29 0.29 0.28 0.28 0.27 0.27 0.28 0.28 0.27 0.24 0.23 0.26 0.26 0.25 0.25 0.25 0.26 0.26 0.25 0.25 0.26 0.28 0.30 0.30 0.29 0.29 0.28 0.27 0.27 0.27 0.26 0.25 0.23 0.23 0.25 0.24 0.24 0.23 0.23 0.22 0.22 0.22 0.22 0.23 0.21 0.19 0.16 0.15 0.14 0.15 0.16 0.17 0.17 0.18 0.19 0.21 0.21 0.21 0.21 0.21 0.21 0.21 0.22 0.21 0.20 0.19 0.19 0.18 0.18 0.20 0.21 0.22 0.23 0.24 0.23 0.25 0.27 0.29 0.30 0.33
0.29 0.30 0.30 0.31 0.32 0.31 0.31 0.30 0.30 0.30 0.29 0.29 0.30 0.28 0.25 0.24 0.27 0.25 0.25 0.26 0.26 0.26 0.26 0.26 0.25 0.26 0.28 0.31 0.31 0.30 0.30 0.28 0.28 0.27 0.27 0.26 0.25 0.24 0.23 0.22 0.22 0.21 0.20 0.19 0.19 0.20 0.20 0.19 0.19 0.19 0.18 0.16 0.15 0.14 0.15 0.15 0.15 0.15 0.16 0.17 0.17 0.17 0.17 0.18 0.18 0.19 0.19 0.18 0.19 0.20 0.19 0.19 0.18 0.17 0.17 0.19 0.21 0.21 0.22 0.23 0.25 0.27 0.27 0.30 0.32
0.29 0.30 0.29 0.30 0.31 0.33 0.33 0.34 0.34 0.32 0.31 0.31 0.30 0.28 0.26 0.25 0.27 0.24 0.25 0.25 0.25 0.27 0.27 0.25 0.25 0.26 0.29 0.31 0.31 0.31 0.29 0.27 0.26 0.26 0.25 0.25 0.24 0.23 0.23 0.23 0.23 0.21 0.20 0.18 0.17 0.17 0.17 0.17 0.17 0.17 0.17 0.16 0.15 0.15 0.14 0.14 0.15 0.15 0.15 0.16 0.16 0.16 0.16 0.16 0.16 0.15 0.15 0.16 0.16 0.17 0.18 0.18 0.17 0.17 0.18 0.19 0.20 0.21 0.24 0.24 0.24 0.26 0.28 0.29 0.30
0.28 0.30 0.30 0.30 0.31 0.31 0.34 0.36 0.35 0.36 0.34 0.34 0.30 0.28 0.28 0.27 0.25 0.24 0.27 0.26 0.28 0.28 0.28 0.26 0.25 0.25 0.27 0.29 0.30 0.30 0.29 0.27 0.25 0.24 0.23 0.23 0.22 0.21 0.21 0.21 0.21 0.19 0.18 0.16 0.15 0.15 0.15 0.15 0.15 0.15 0.16 0.16 0.16 0.15 0.15 0.15 0.15 0.15 0.15 0.15 0.15 0.14 0.14 0.14 0.15 0.15 0.15 0.16 0.16 0.16 0.15 0.15 0.15 0.15 0.15 0.17 0.18 0.20 0.23 0.24 0.26 0.26 0.26 0.28 0.30
0.27 0.28 0.29 0.30 0.30 0.31 0.31 0.33 0.33 0.33 0.32 0.32 0.32 0.31 0.28 0.23 0.22 0.24 0.25 0.26 0.27 0.27 0.25 0.25 0.25 0.25 0.26 0.26 0.27 0.26 0.25 0.23 0.22 0.22 0.21 0.20 0.20 0.19 0.18 0.18 0.17 0.16 0.15 0.15 0.14 0.14 0.13 0.13 0.14 0.14 0.15 0.16 0.16 0.15 0.15 0.15 0.15 0.15 0.15 0.14 0.14 0.14 0.15 0.14 0.14 0.15 0.16 0.15 0.15 0.15 0.15 0.15 0.14 0.14 0.15 0.16 0.18 0.19 0.21 0.22 0.23 0.25 0.27 0.29 0.30
0.26 0.27 0.28 0.30 0.31 0.31 0.32 0.32 0.31 0.31 0.32 0.32 0.31 0.29 0.25 0.24 0.24 0.24 0.26 0.26 0.27 0.27 0.26 0.25 0.25 0.24 0.24 0.24 0.25 0.24 0.22 0.20 0.19 0.18 0.18 0.17 0.16 0.16 0.16 0.15 0.14 0.14 0.13 0.13 0.13 0.13 0.13 0.13 0.13 0.14 0.14 0.15 0.14 0.14 0.14 0.14 0.15 0.16 0.15 0.15 0.15 0.15 0.14 0.15 0.15 0.14 0.14 0.16 0.15 0.15 0.16 0.15 0.15 0.14 0.14 0.15 0.17 0.19 0.20 0.21 0.23 0.25 0.27 0.29 0.31